Wheeling, WV

5:51 AM EST on December 16, 2019 (GMT -0500)
Wheeling-Ohio County

Weather History for KHLG - October, 2019

Change the Weather History Date:

Thursday, October 17, 2019

  Actual Average Record
Temperature  
Mean Temperature 48 °F 53 °F  
Max Temperature 53 °F 62 °F 82 °F (1938)
Min Temperature 42 °F 43 °F 25 °F (1940)
Degree Days  
Heating Degree Days 17 12  
Month to date heating degree days 123 168  
Since 1 July heating degree days 124 269  
Cooling Degree Days 0 0  
Month to date cooling degree days 40 10  
Year to date cooling degree days 986 688  
Moisture  
Dew Point 37 °F    
Average Humidity 67    
Maximum Humidity 82    
Minimum Humidity 52    
Precipitation  
Precipitation T in 0.08 in 1.61 in (2006)
Month to date precipitation 2.45 1.42  
Year to date precipitation 30.43 31.19  
Sea Level Pressure  
Sea Level Pressure 29.85 in    
Wind  
Wind Speed 11 mph (West)    
Max Wind Speed 21 mph    
Max Gust Speed 28 mph    
Visibility 10 miles    
Events Rain    
T = Trace of Precipitation, MM = Missing Value Source: NWS Daily Summary

Daily Weather History Graph

Daily Weather History Graph

Search for Another Location

Airport or City:

Astronomy

Oct. 17, 2019 Rise Set
Actual Time 7:35 AM EDT 6:40 PM EDT
Civil Twilight 7:07 AM EDT 7:07 PM EDT
Nautical Twilight 6:36 AM EDT 7:39 PM EDT
Astronomical Twilight 6:04 AM EDT 8:10 PM EDT
Moon 9:10 PM EDT (10/17) 11:05 AM EDT (10/17)
Length of Visible Light 11h 59m
Length of Day
11h 05m
Waning Gibbous, 87% of the Moon is Illuminated
Oct 17
Waning Gibbous
Oct 21
Last Quarter
Oct 27
New
Nov 4
First Quarter
Nov 12
Full

Hourly Weather History & Observations

Time (EDT) Temp. Windchill Dew Point Humidity Pressure Visibility Wind Dir Wind Speed Gust Speed Precip Events Conditions
12:09 AM 46.0 °F 39.0 °F 42.1 °F 86% 29.73 in 10.0 mi West 17.3 mph 21.9 mph N/A   Overcast
12:53 AM 46.0 °F 38.8 °F 41.0 °F 83% 29.75 in 10.0 mi West 18.4 mph 24.2 mph N/A   Overcast
1:53 AM 46.0 °F 40.6 °F 39.9 °F 79% 29.75 in 10.0 mi West 11.5 mph - 0.00 in   Overcast
2:53 AM 45.0 °F 38.2 °F 39.9 °F 82% 29.75 in 10.0 mi West 15.0 mph 24.2 mph N/A   Overcast
3:53 AM 45.0 °F 39.3 °F 39.0 °F 80% 29.75 in 10.0 mi West 11.5 mph 23.0 mph 0.00 in   Overcast
4:53 AM 44.1 °F 37.4 °F 39.0 °F 82% 29.76 in 10.0 mi West 13.8 mph - 0.00 in Rain Light Rain
5:53 AM 44.1 °F 37.7 °F 37.9 °F 79% 29.78 in 10.0 mi West 12.7 mph 24.2 mph 0.00 in Rain Light Rain
6:53 AM 43.0 °F 36.4 °F 37.0 °F 80% 29.81 in 10.0 mi West 12.7 mph 24.2 mph 0.00 in   Overcast
7:53 AM 42.1 °F 34.9 °F 37.0 °F 82% 29.82 in 10.0 mi West 13.8 mph 21.9 mph 0.00 in Rain Light Rain
8:53 AM 42.1 °F 35.7 °F 37.0 °F 82% 29.84 in 10.0 mi West 11.5 mph 21.9 mph 0.00 in   Overcast
9:53 AM 43.0 °F 37.2 °F 37.0 °F 80% 29.85 in 10.0 mi West 10.4 mph - 0.00 in   Overcast
10:53 AM 45.0 °F 38.5 °F 36.0 °F 71% 29.85 in 10.0 mi West 13.8 mph 24.2 mph N/A   Mostly Cloudy
11:18 AM 46.9 °F - 36.0 °F 66% 29.83 in 10.0 mi West 19.6 mph 26.5 mph N/A   Mostly Cloudy
11:53 AM 46.9 °F - 36.0 °F 66% 29.86 in 10.0 mi WNW 17.3 mph 24.2 mph N/A   Overcast
12:44 PM 48.9 °F - 36.0 °F 61% 29.84 in 10.0 mi West 13.8 mph 23.0 mph N/A   Overcast
12:53 PM 48.0 °F - 35.1 °F 61% 29.86 in 10.0 mi WNW 15.0 mph 21.9 mph N/A   Mostly Cloudy
1:53 PM 50.0 °F - 36.0 °F 59% 29.86 in 10.0 mi West 11.5 mph 21.9 mph N/A   Mostly Cloudy
2:53 PM 51.1 °F - 36.0 °F 56% 29.86 in 10.0 mi WNW 10.4 mph 21.9 mph N/A   Mostly Cloudy
3:53 PM 51.1 °F - 34.0 °F 52% 29.87 in 10.0 mi West 13.8 mph 26.5 mph N/A   Overcast
4:53 PM 51.1 °F - 34.0 °F 52% 29.88 in 10.0 mi WNW 18.4 mph 26.5 mph N/A   Overcast
5:53 PM 50.0 °F - 34.0 °F 54% 29.89 in 10.0 mi WNW 11.5 mph 20.7 mph N/A   Overcast
6:53 PM 48.9 °F - 34.0 °F 56% 29.92 in 10.0 mi WNW 9.2 mph - N/A   Overcast
7:53 PM 48.0 °F - 35.1 °F 61% 29.94 in 10.0 mi WNW 5.8 mph - N/A   Overcast
8:53 PM 46.0 °F 42.5 °F 35.1 °F 66% 29.96 in 10.0 mi West 6.9 mph - N/A   Mostly Cloudy
9:53 PM 46.0 °F 43.1 °F 35.1 °F 66% 29.97 in 10.0 mi WNW 5.8 mph - N/A   Overcast
10:53 PM 46.0 °F 43.1 °F 35.1 °F 66% 29.98 in 10.0 mi West 5.8 mph - N/A   Overcast
11:53 PM 45.0 °F 41.2 °F 35.1 °F 68% 29.98 in 10.0 mi West 6.9 mph - N/A   Scattered Clouds